Preview of NWS' New Version of Forecast
This preview is not operational and should not be used for support decisions.

Regional Weather Roundup (RWR)

Issued by National Weather Service (NWS)

                            
000
ASUS44 KJAN 150910
RWRMS 

MISSISSIPPI HOURLY WEATHER ROUNDUP
NATIONAL WEATHER SERVICE JACKSON MS
400 AM CDT SUN SEP 15 2019

NOTE: "FAIR: INDICATES FEW OR NO CLOUDS BELOW 12,000 FEET WITH NO
SIGNIFICANT WEATHER AND/OR OBSTRUCTIONS TO VISIBILITY.

MSZ001>002-007>008-010>013-018>021-025>028-034>036-151000-
NORTHWEST MISSISSIPPI
  
CITY           SKY/WX    TMP DP  RH WIND       PRES   REMARKS
BATESVILLE       N/A     72  70  94 CALM      30.11S                  
CLARKSDALE       N/A     72  72 100 CALM      30.10F                  
CLEVELAND      FAIR      74  74 100 CALM      30.09S                  
GREENWOOD      FAIR      76  70  82 NE3       30.09S                  
GREENVILLE     FAIR      73  69  87 N5        30.08F                  
OLIVE BRANCH     N/A     72  68  88 CALM      30.12S                  
OXFORD         FAIR      72  68  88 CALM      30.13S                  
TUNICA           N/A     70  68  94 N3        30.12S                  
WINONA         FAIR      72  71  98 CALM      30.11R                  
$$

MSZ003>006-009-014>017-022>024-029>033-037>039-151000-
NORTHEAST MISSISSIPPI
  
CITY           SKY/WX    TMP DP  RH WIND       PRES   REMARKS
ABERDEEN       FAIR      68  52  56 CALM      30.13R HAZE             
COLUMBUS AFB   FAIR      73  70  91 CALM      30.10S                  
CORINTH        FOG       70  70 100 CALM      30.13S VSB 1/4          
GOLDN TRIANGLE FAIR      75  71  87 E3        30.11S                  
STARKVILLE       N/A     72  68  88 CALM      30.13R                  
TUPELO         FAIR      74  70  87 N3        30.11F                  
$$

MSZ040-058-151000-
CENTRAL MISSISSIPPI
  
CITY           SKY/WX    TMP DP  RH WIND       PRES   REMARKS
JACKSON INTL   FAIR      76  68  76 CALM      30.08S                  
JACKSON HAWKNS FAIR      77  69  76 E3        30.09S                  
MADISON        FAIR      73  72  94 CALM      30.10S                  
MERIDIAN KEY   FAIR      74  70  87 CALM      30.09S                  
MERIDIAN NAS   FAIR      72  69  90 CALM      30.10S                  
RAYMOND        FAIR      72  72 100 CALM      30.08S                  
VICKSBURG VKS  SUNNY     73  73 100 CALM      30.08R                  
$$

MSZ059>079-151000-
SOUTH MISSISSIPPI
  
CITY           SKY/WX    TMP DP  RH WIND       PRES   REMARKS
BROOKHAVEN     FAIR      72  70  94 CALM      30.10R                  
HATTIESBURG    FAIR      73  69  87 CALM      30.07S                  
LAUREL         SUNNY     71  70  95 NW5       30.08S                  
MCCOMB         FAIR      77  68  73 N3        30.07R                  
NATCHEZ        FAIR      70  69  97 CALM      30.07F                  
PINE BELT      FAIR      73  70  90 N5        30.08S FOG              
$$

MSZ080>082-151000-
COASTAL MISSISSIPPI
  
CITY           SKY/WX    TMP DP  RH WIND       PRES   REMARKS
BILOXI         FAIR      76  71  84 NE5       30.01F                  
PASCAGOULA     FAIR      74  69  85 N5        30.02F                  
GULFPORT       FAIR      78  70  76 NE3       30.01F                  
$$

LAZ007>009-015>016-023>026-151000-
NORTHEAST LOUISIANA
  
CITY           SKY/WX    TMP DP  RH WIND       PRES   REMARKS
BASTROP        FAIR      73  72  98 CALM      30.09S                  
TALLULAH/VBURG FAIR      73  70  90 CALM      30.08R                  
VIDALIA        FAIR      72  69  90 CALM      30.05F                  
$$